Overview Statistics Trail Chart Weather Telemetry Raw packets
 

This is the latest recevied weather packets stored in our database for station/object KC2GYU. If no packets are shown the sender has not sent any weather packets the latest 10 day(s).

<< 1 2 3 4 5 >>
Time Temp. Humidity Pressure Rain* Wind** Luminosity Snow
1778133876 17.78° C 95% 1008.5 hPa 0 mm - 0 W/m² -
1778133573 17.78° C 96% 1008.8 hPa 0 mm - 0 W/m² -
1778133268 17.22° C 97% 1009 hPa 0 mm - 0 W/m² -
1778132960 16.67° C 97% 1009.2 hPa 0 mm - 0 W/m² -
1778132656 16.67° C 97% 1009.1 hPa 0 mm - 0 W/m² -
1778132354 16.67° C 97% 1008.9 hPa 0 mm - 0 W/m² -
1778132051 16.67° C 97% 1008.6 hPa 0 mm - 0 W/m² -
1778131750 16.67° C 97% 1008.7 hPa 0 mm - 0 W/m² -
1778131446 16.11° C 97% 1008.6 hPa 0 mm - 0 W/m² -
1778131138 16.11° C 97% 1008.5 hPa 0 mm - 0 W/m² -
1778130835 16.67° C 97% 1008.3 hPa 0 mm - 0 W/m² -
1778130532 16.11° C 98% 1008.5 hPa 0 mm - 0 W/m² -
1778130228 15.56° C 98% 1008.8 hPa 0 mm - 0 W/m² -
1778129926 15.56° C 98% 1009 hPa 0 mm - 0 W/m² -
1778129622 15.56° C 98% 1009.2 hPa 0 mm - 0 W/m² -
1778129319 15° C 98% 1009 hPa 0 mm - 0 W/m² -
1778129015 15° C 98% 1009.1 hPa 0 mm - 0 W/m² -
1778128712 15° C 98% 1008.8 hPa 0 mm - 0 W/m² -
1778128408 15° C 98% 1008.8 hPa 0 mm - 0 W/m² -
1778128105 15° C 98% 1008.8 hPa 0 mm - 0 W/m² -
1778127800 15° C 98% 1009.1 hPa 0 mm - 0 W/m² -
1778127498 15° C 98% 1009.2 hPa 0 mm - 0 W/m² -
1778127194 15° C 98% 1009.2 hPa 0 mm - 0 W/m² -
1778126891 15° C 98% 1009.3 hPa 0 mm - 0 W/m² -
1778126587 15° C 98% 1009.1 hPa 0 mm - 0 W/m² -

* Rain latest hour (hover to see other rain measurements)
** Current wind speed in m/s (hover to see current wind gust speed)